User: anonymous   Login
Location: Czu?�w
(50.1404°N, 18.9919°E)
Time: 06:47:49
(UTC+00:00)
Language:

Cosmos 1553 Rocket - Orbit

View from above orbital plane
View from above orbital plane
View from above satellite
View from above satellite

Ground track
Ground track

The orbit data is extracted from the following two-line orbital elements,

1 14974U 84046B   21015.92395245  .00000102  00000-0  87946-4 0  9996
2 14974  82.9345 248.6051 0044081 299.5540  70.4887 13.76941062842068
Epoch (UTC): 15 January 2021 22:10:29
Eccentricity: 0.0044081
inclination: 82.9345°
perigee height: 942 km
apogee height: 1007 km
right ascension of ascending node: 248.6051°
argument of perigee: 299.5540°
revolutions per day: 13.76941062
mean anomaly at epoch: 70.4887°
orbit number at epoch: 84206

The dashed part of the orbit path shows where the satellite is in the earth's shadow,  

DLR